Location: Adair
(33.3137°N, 90.0906°W)
Time: 04:17:09
(UTC+00:00)

HTV-X1 - Visible Passes

Search period start: 20 May 2026 00:00
Search period end: 30 May 2026 00:00
Orbit: 372 x 382 km, 51.6° (Epoch: 19 May)

Date Brightness Start Highest point End Pass type
(mag) Time Alt. Az. Time Alt. Az. Time Alt. Az.
22 May ? 04:00:08 10° NNW 04:00:22 11° NNW 04:00:22 11° NNW visible
23 May ? 02:59:48 10° N 03:01:23 13° NNE 03:01:23 13° NNE visible
24 May ? 03:33:16 10° NW 03:34:27 20° NNW 03:34:27 20° NNW visible
25 May ? 02:32:28 10° NNW 02:34:50 20° NE 02:35:27 19° NE visible
26 May ? 03:06:21 10° NW 03:08:31 42° NW 03:08:31 42° NW visible
27 May ? 02:05:11 10° NNW 02:07:59 31° NE 02:09:31 19° E visible
28 May ? 02:39:23 10° WNW 02:42:20 45° SW 02:42:36 43° SSW visible
29 May ? 01:37:51 10° NW 01:40:52 54° NE 01:43:38 12° ESE visible
